www.pogodaiklimat.ru

Погода и климат >> Архив погоды >> Россия >> Забайкальский край >> Кыра


АРХИВ ПОГОДЫ в Кыре

Время (UTC), дата Ветер
(напр.,м/с)
 
Видим.   Явления Облачность Т
(С)
Тd
(С)
f
(%)
Тe
(С)
Тes
(С)
Комфортность P
(гПа)
Po
(гПа)
Тmin
(С)
Tmax
(С)
R
(мм)
R24
(мм)
S
(см)
00 14.03 штиль 0 50 км 4/3 1000 м
[Cu med, cong Ac trans]
-11.0 -14.5 75 -11 -10 1028.5 915.0 -13.2
03 14.03 СЗ 3 50 км 8/4 1000 м
[Cb cap Ac trans Ci fib]
-1.7 -12.8 42 -6 -3 1025.3 915.7
06 14.03 С 5-10
{11}
50 км 6/4 1000 м
[Cb cap Ac trans]
+0.6 -15.1 30 -4 -2 1023.9 915.4
09 14.03 СЗ 4
{12}
50 км 6/3 1000 м
[Cb cap Ac trans Ci fib]
-0.2 -15.3 31 -5 -4 1024.3 915.5
12 14.03 С 1 н/о 4/0
[Ac trans Ci fib]
-5.1 -15.5 44 -7 -7 1027.8 916.7 +1.3
15 14.03 ЮЗ 1 н/о 9/3 1000 м
[Sc Cs]
-9.0 -15.4 60 -11 -11 1029.4 916.5
18 14.03 штиль 0 н/о 9/3 1000 м
[Sc Ac trans Cs]
-9.1 -14.8 63 -9 -9 1026.6 914.1
21 14.03 штиль 0 н/о 9/4 1000 м
[Sc Ac trans]
-9.1 -14.6 64 -9 -9 1023.1 911.0
00 15.03 Ю 1 50 км 9/5 1000 м
[Sc Ac trans]
-8.4 -14.0 64 -11 -10 1021.0 909.4 -10.1
03 15.03 ЮЗ 4 4000 м слаб. ливневой снег 9/6 1000 м
[Cb cap Ac trans]
-1.0 -3.1 86 -7 -6 1017.8 909.5
06 15.03 СЗ 7-14
{14}
50 км {ливн. осадки} 8/4 1000 м
[Cb cap Ac trans Ci fib]
+5.0 -9.9 33 0 +1 1014.6 908.7
09 15.03 СЗ 4
{17}
50 км {ливн. осадки} 8/4 1000 м
[Cb cap Ac trans Ci fib]
+3.3 -9.1 40 -0 -0 1015.5 908.9
12 15.03 З 2
{11}
н/о {ливн. осадки} 6/3 1000 м
[Cb cap Ci fib]
-0.8 -10.1 49 -4 -4 1018.5 910.1 +5.4 0.0
15 15.03 СЗ 3 н/о 8/3 1000 м
[Cb cap Ac trans]
-1.3 -7.4 63 -6 -6 1020.0 911.2
18 15.03 СВ 1 н/о 6/3 1000 м
[Cb cap Ac trans]
-7.0 -9.1 85 -9 -9 1023.8 912.5
21 15.03 З 2 н/о 4/0
[Ac trans Ci fib]
-7.9 -10.4 82 -12 -12 1024.7 912.9
00 16.03 С 1 50 км 8/4 1000 м
[Cb cap Ac trans Ci fib]
-6.4 -9.2 80 -9 -8 1025.5 914.2 -9.9
03 16.03 штиль 0 50 км 10/0
[Ac und]
+0.1 -6.4 62 -1 +3 1022.6 914.1
06 16.03 З 2 50 км 9/4 1000 м
[Cu med, cong Ci fib]
+6.6 -6.7 38 +5 +9 1017.1 911.5
09 16.03 СЗ 4 50 км 4/0
[Ac lent Ci fib]
+8.8 -8.5 28 +7 +7 1013.6 909.2
12 16.03 штиль 0 н/о ясно 0.0 -8.6 52 -0 -0 1016.9 908.9 +8.8
15 16.03 С 1 н/о 3/0
[Ci fib]
-6.5 -9.9 77 -9 -9 1018.8 908.2
18 16.03 штиль 0 н/о 3/0
[Ci fib]
-9.0 -12.2 78 -9 -9 1018.0 906.4
21 16.03 С 1 н/о ясно -10.9 -13.3 82 -13 -13 1016.3 904.2
00 17.03 штиль 0 50 км 3/0
[Ac trans]
-8.9 -12.1 78 -9 -8 1015.4 904.2 -12.7
03 17.03 З 1 50 км 3/0
[Ac lent]
+3.1 -8.2 43 +2 +9 1009.3 903.3
06 17.03 СЗ 5 50 км 8/0
[Ac trans Ci fib]
+11.6 -16.3 13 +10 +13 1004.2 901.6
09 17.03 З 4
{10}
50 км 3/0
[Ac lent Ci fib]
+11.6 -16.5 12 +10 +11 1003.3 900.8
12 17.03 С 2 н/о ясно +0.9 -15.3 29 -1 -1 1008.5 901.7 +12.2
15 17.03 штиль 0 н/о ясно -5.8 -13.3 55 -6 -6 1011.5 901.9
18 17.03 штиль 0 н/о 8/0
[Ac lent Cs]
-8.0 -13.6 64 -8 -8 1012.9 902.3
21 17.03 штиль 0 н/о 3/0
[Ac lent]
-10.3 -13.1 80 -11 -11 1012.8 901.4
00 18.03 штиль 0 50 км 6/0
[Ac lent Ci fib]
-7.1 -12.8 64 -8 -6 1010.9 900.9 -11.0
03 18.03 С 1 50 км 3/0
[Ac lent Ci fib]
+3.0 -12.1 32 +2 +11 опасность
простуды
1003.8 898.3
06 18.03 Ю 5 50 км 6/3 1000 м
[Sc Ac trans Ci fib]
+12.4 -16.0 12 +11 +13 996.1 894.6
09 18.03 Ю 4
{10}
50 км 8/6 1000 м
[Cb cap Ac trans]
+11.7 -16.1 13 +10 +11 993.7 892.2
12 18.03 СЗ 1
{13}
н/о 3/3 1000 м
[Sc diur, vesp]
+3.5 -4.6 55 +3 +3 999.6 894.8 +13.6
15 18.03 СЗ 4
{10}
н/о 3/0
[Ac trans]
+2.3 -8.5 45 -2 -2 1003.0 897.3
18 18.03 СЗ 5
{13}
н/о 8/0
[Ac lent Cs]
-0.4 -10.4 47 -6 -6 1006.3 899.3
21 18.03 СЗ 5
{13}
н/о 8/3 1000 м
[Cu hum Ac trans]
-2.9 -12.0 49 -9 -9 1009.2 901.0
00 19.03 СЗ 4
{11}
50 км 9/6 1000 м
[Sc Ac trans]
-3.3 -12.7 48 -9 -9 1012.9 904.1 -3.5
03 19.03 СЗ 4
{12}
50 км 9/5 1000 м
[Sc Ac trans]
-1.6 -13.7 39 -6 -5 1014.1 905.8
06 19.03 СЗ 5
{13}
50 км 8/3 1000 м
[Cu hum Ac trans Ci fib]
-0.4 -16.5 28 -5 -4 1014.5 906.6
09 19.03 СЗ 6-10
{11}
50 км 8/3 1000 м
[Sc Ac trans Ci fib]
-1.4 -17.5 28 -7 -7 1015.5 907.1
12 19.03 С 3
{10}
н/о 3/0
[Ac lent]
-4.3 -14.9 43 -9 -9 1019.8 909.8 +0.7
15 19.03 З 1 н/о ясно -7.6 -14.3 59 -10 -10 1023.5 911.9
18 19.03 СЗ 1 н/о ясно -9.2 -14.7 64 -11 -11 1024.8 912.4
21 19.03 З 1 н/о ясно -9.1 -16.1 57 -11 -11 1025.1 912.7
00 20.03 З 2 50 км 3/0
[Ci fib]
-9.4 -17.8 50 -14 -12 1026.3 913.7 -10.7
03 20.03 СЗ 4 50 км 3/3 1000 м
[Cu hum]
-4.5 -19.2 31 -10 -6 1024.0 913.5
06 20.03 СЗ 4
{10}
50 км 3/3 1000 м
[Cu hum Ci fib]
-2.1 -21.4 21 -7 -3 1022.1 912.8
09 20.03 СЗ 3
{10}
50 км 8/3 1000 м
[Cb cap Ci fib]
-3.1 -19.7 26 -7 -6 1022.6 912.8
12 20.03 С 1 н/о 3/0
[Ac lent Ci fib]
-6.2 -15.9 46 -8 -8 1026.9 915.5 -1.3
15 20.03 З 2 н/о 1/0
[Ac trans]
-9.0 -15.7 58 -13 -13 1029.6 916.8
18 20.03 СЗ 2 н/о 3/0
[Ac trans]
-10.6 -16.1 64 -15 -15 1030.3 916.7
21 20.03 штиль 0 н/о 8/0
[Ac lent Ci fib]
-13.9 -17.5 74 -14 -14 1031.5 916.5

 

Местоположение метеостанции Кыра (Забайкальский край, Россия): широта 49.57 долгота 111.90 высота над уровнем моря 908 м.

В архиве по умолчанию представлена погода в Кыре за последнюю неделю. Архивные данные за месяц целиком и за предыдущие месяцы, начиная с января 2011 года, Вы можете получить, выбрав интересующий диапазон дат из раскрывающегося списка и нажав кнопку "Ввод!".


*Определитесь, кто Вы:
робот инопланетянин человек

Внимание! Время в таблицах - всемирное. Для получения местного времени необходимо прибавить поправку, которая равна 9 ч.

Смотрите также архив погоды в соседних городах и на ближайших метеорологических станциях:

Погода в Мангуте (Забайкальский край, Россия) (52 км)
Погода в Букукуне (Забайкальский край, Россия) (59 км)
Погода в Татаале (Монголия) (87 км)
Погода в Акше (Забайкальский край, Россия) (121 км)
Погода в Биндэре (Монголия) (142 км)
Погода в Дульдурге (Забайкальский край, Россия) (168 км)
Погода в Черемхово (Забайкальский край, Россия) (171 км)
Погода в Дашбалбаре (Монголия) (180 км)
Погода в Баян-Ову (Монголия) (200 км)
Погода в Улетах (Забайкальский край, Россия) (201 км)

Пояснения к столбцам:

Ветер - указаны скорость ветра в м/с - средняя за 10 мин, порывы в срок и между сроками (в фигурных скобках) и направление, откуда дует ветер: С - северный, СВ - северо-восточный, В - восточный, ЮВ - юго-восточный, Ю - южный, ЮЗ - юго-западный, З - западный, СЗ - северо-западный.
Видимость - горизонтальная дальность видимости в метрах или километрах. При видимости от 1 до 10 км при отсутствии осадков обычно наблюдается дымка, при ухудшении видимости до 1 км и менее - туман. В сухую погоду видимость может ухудшаться дымом, пылью или мглою.
Явления - указаны атмосферные явления, наблюдавшиеся в срок или в последний час перед сроком; фигурными скобками обозначены явления, наблюдавшиеся между сроками (за 1-3 часа до срока); квадратными скобками обозначены град или гололедные отложения с указанием их диаметра в мм.
Облачность - указаны через наклонную черту общая и нижняя облачность в баллах и высота нижней границы облаков в метрах; квадратными скобками обозначены формы облаков: Ci - перистые, Cs - перисто-слоистые, Cc - перисто-кучевые, Ac - высококучевые, As - высокослоистые, Sc - слоисто-кучевые, Ns - слоисто-дождевые, Cu - кучевые, Cb - кучево-дождевые. Подробнее классификацию облаков см. в Атласе облаков (PDF).
T - Температура воздуха - температура, измеренная на высоте 2 м над землей.
Td - Температура точки росы - температура, при понижении до которой содержащийся в воздухе водяной пар достигнет насыщения.
f - Относительная влажность воздуха - влажноcть воздуха, измеренная на высоте 2 м над землей.
Te - Эффективная температура - температура, которую ощущает одетый по сезону человек в тени. Характеристика душности погоды. При расчете учитывается влияние влажности воздуха и скорости ветра на теплоощущения человека.
Tes - Эффективная температура на солнце - температура, которую ощущает человек, с поправкой на солнечный нагрев. Характеристика знойности погоды. Зависит от высоты солнца над горизонтом, облачности и скорости ветра. Ночью, в пасмурную погоду, а также при ветре 12 м/с и более поправка равна нулю.
P - Атмосферное давление - приведенное к уровню моря атмосферное давление.
Po - Атмосферное давление - измеренное на уровне метеостанции атмосферное давление.
Tmin - Минимальная температура - минимум температуры воздуха на высоте 2 м над землей.
Tmax - Максимальная температура - максимум температуры воздуха на высоте 2 м над землей.
R - Количество осадков - Количество выпавших осадков за период времени, мм. При наведении курсора мыши на число - период времени, за который выпало указанное количество осадков.
R24 - Количество осадков - Количество выпавших осадков за 24 часа, мм.
S - Снежный покров - Высота снежного покрова, см. При наведении курсора мыши на число - состояние снежного покрова и степень покрытия местности в баллах.